Marshfield, WI

5:42 AM CDT on April 29, 2017 (GMT -0500)
Marshfield Municipal

Weather History for KMFI - January, 2012

Change the Weather History Date:

Friday, January 13, 2012

  Actual Average Record
Temperature  
Mean Temperature 15 °F -  
Max Temperature 18 °F 23 °F 46 °F (1987)
Min Temperature 12 °F 5 °F -31 °F (1929)
Degree Days  
Heating Degree Days 50    
Moisture  
Dew Point 8 °F    
Average Humidity 75    
Maximum Humidity 79    
Minimum Humidity 65    
Precipitation  
Precipitation 0.00 in - - ()
Sea Level Pressure  
Sea Level Pressure 29.87 in    
Wind  
Wind Speed 14 mph (NW)    
Max Wind Speed 18 mph    
Max Gust Speed 21 mph    
Visibility 7 miles    
Events Snow    
Averages and records for this station are not official NWS values.
T = Trace of Precipitation, MM = Missing Value Source: NWS Daily Summary

Daily Weather History Graph

Daily Weather History Graph

Search for Another Location

Airport or City:

Trip Planner

Search our weather history database for the weather conditions in past years. The results will help you decide how hot, cold, wet, or windy it might be!

Date:

Astronomy

Jan. 13, 2012 Rise Set
Actual Time 7:35 AM CST 4:43 PM CST
Civil Twilight 7:02 AM CST 5:16 PM CST
Nautical Twilight 6:26 AM CST 5:52 PM CST
Astronomical Twilight 5:51 AM CST 6:27 PM CST
Moon 10:11 PM CST (1/13) 9:36 AM CST (1/13)
Length of Visible Light 10h 13m
Length of Day
9h 08m
Waning Gibbous, 78% of the Moon is Illuminated
Jan 13
Waning Gibbous
Jan 16
Last Quarter
Jan 23
New
Jan 30
First Quarter
Feb 7
Full

Hourly Weather History & Observations

Time (CST) Temp. Windchill Dew Point Humidity Pressure Visibility Wind Dir Wind Speed Gust Speed Precip Events Conditions
12:22 AM 14.0 °F -2.5 °F 8.6 °F 79% 29.63 in 2.5 mi NW 17.3 mph - 0.00 in Snow Light Snow
12:47 AM 14.0 °F -3.0 °F 8.6 °F 79% 29.63 in 3.0 mi NW 18.4 mph - 0.00 in Snow Light Snow
12:54 AM 14.0 °F -2.0 °F 8.1 °F 77% 29.70 in 3.0 mi NW 16.1 mph - 0.00 in Snow Light Snow
1:54 AM 14.0 °F -2.0 °F 8.1 °F 77% 29.73 in 8.0 mi NW 16.1 mph - 0.00 in Snow Light Snow
2:54 AM 14.0 °F -2.5 °F 8.1 °F 77% 29.74 in 4.0 mi NW 17.3 mph - 0.00 in Snow Light Snow
3:54 AM 15.1 °F -0.1 °F 9.0 °F 77% 29.76 in 7.0 mi NW 15.0 mph - 0.00 in Snow Light Snow
4:54 AM 15.1 °F -0.6 °F 9.0 °F 77% 29.77 in 9.0 mi NNW 16.1 mph - 0.00 in Snow Light Snow
6:54 AM 15.1 °F -1.6 °F 8.1 °F 74% 29.83 in 10.0 mi NNW 18.4 mph - N/A   Overcast
8:54 AM 14.0 °F -0.2 °F 8.1 °F 77% 29.88 in 10.0 mi NW 12.7 mph - N/A   Overcast
9:54 AM 16.0 °F 1.1 °F 9.0 °F 74% 29.90 in 5.0 mi NNW 15.0 mph - 0.00 in Snow Light Snow
10:54 AM 17.1 °F 3.0 °F 8.1 °F 68% 29.91 in 5.0 mi North 13.8 mph 20.7 mph 0.00 in Snow Light Snow
11:54 AM 18.0 °F 6.1 °F 8.1 °F 65% 29.91 in 9.0 mi NW 10.4 mph - 0.00 in   Overcast
12:44 PM 15.8 °F 2.7 °F 10.4 °F 79% 29.83 in 2.0 mi NW 11.5 mph - 0.00 in Snow Light Snow
12:54 PM 16.0 °F 2.9 °F 10.0 °F 77% 29.91 in 2.5 mi NW 11.5 mph - 0.00 in Snow Light Snow
1:06 PM 17.6 °F 4.3 °F 10.4 °F 73% 29.83 in 4.0 mi WNW 12.7 mph - 0.00 in Snow Light Snow
1:54 PM 17.1 °F 5.8 °F 9.0 °F 71% 29.91 in 6.0 mi NW 9.2 mph - 0.00 in Snow Light Snow
2:54 PM 16.0 °F 3.6 °F 9.0 °F 74% 29.94 in 7.0 mi WNW 10.4 mph - 0.00 in Snow Light Snow
3:54 PM 16.0 °F 6.3 °F 8.1 °F 71% 29.96 in 7.0 mi West 6.9 mph - 0.00 in Snow Light Snow
4:54 PM 15.1 °F 5.2 °F 7.0 °F 70% 29.98 in 10.0 mi WNW 6.9 mph - 0.00 in   Overcast
5:54 PM 15.1 °F 4.2 °F 7.0 °F 70% 30.00 in 10.0 mi WNW 8.1 mph - N/A   Overcast
6:54 PM 14.0 °F 5.1 °F 7.0 °F 74% 30.01 in 10.0 mi WNW 5.8 mph - N/A   Overcast
8:54 PM 12.9 °F 2.6 °F 7.0 °F 77% 30.02 in 10.0 mi WNW 6.9 mph - 0.00 in   Overcast
9:54 PM 12.9 °F 2.6 °F 7.0 °F 77% 30.01 in 10.0 mi WNW 6.9 mph - N/A   Overcast
10:54 PM 12.9 °F 5.2 °F 7.0 °F 77% 30.02 in 10.0 mi West 4.6 mph - N/A   Overcast
11:54 PM 12.9 °F 3.8 °F 7.0 °F 77% 30.02 in 10.0 mi West 5.8 mph - N/A   Overcast